User: anonymous   Login
Location: Oshawa
(43.9000°N, 78.8670°W)
Time: 22:23:33
(UTC-05:00)
Language:

S-56A Canister/Altair - Orbit

View from above orbital plane
View from above orbital plane
View from above satellite
View from above satellite

Ground track
Ground track

The orbit data is extracted from the following two-line orbital elements,

1 00082U 61004B   15025.75021956  .00000038  00000-0  61552-4 0  7520
2 00082 038.8594 288.7393 1175343 300.4327 048.5335 12.25671225566088
Epoch (UTC): 25 January 2015 18:00:18
Eccentricity: 0.1175343
inclination: 38.8594°
perigee height: 634 km
apogee height: 2502 km
right ascension of ascending node: 288.7393°
argument of perigee: 300.4327°
revolutions per day: 12.25671225
mean anomaly at epoch: 48.5335°
orbit number at epoch: 56608

The dashed part of the orbit path shows where the satellite is in the earth's shadow,  

DLR